This is the latest recevied weather packets stored in our database for station/object S54A-11. If no packets are shown the sender has not sent any weather packets the latest 10 day(s).
| Time | Temp. | Humidity | Pressure | Rain* | Wind** | Luminosity | Snow |
|---|---|---|---|---|---|---|---|
| 1777766339 | 10° C | 44% | 1020.6 hPa | - | - | - | - |
| 1777765438 | 10° C | 43% | 1020.7 hPa | - | - | - | - |
| 1777764538 | 10° C | 45% | 1020.7 hPa | - | - | - | - |
| 1777763638 | 10.56° C | 43% | 1020.7 hPa | - | - | - | - |
| 1777762738 | 11.11° C | 43% | 1020.8 hPa | - | - | - | - |
| 1777761838 | 11.11° C | 43% | 1020.9 hPa | - | - | - | - |
| 1777760938 | 11.11° C | 43% | 1020.9 hPa | - | - | - | - |
| 1777760038 | 11.67° C | 44% | 1020.9 hPa | - | - | - | - |
| 1777759138 | 11.67° C | 42% | 1021 hPa | - | - | - | - |
| 1777758238 | 11.67° C | 42% | 1020.9 hPa | - | - | - | - |
| 1777757338 | 12.22° C | 42% | 1020.9 hPa | - | - | - | - |
| 1777756438 | 12.78° C | 41% | 1020.9 hPa | - | - | - | - |
| 1777755538 | 12.78° C | 42% | 1020.8 hPa | - | - | - | - |
| 1777754638 | 12.78° C | 44% | 1020.9 hPa | - | - | - | - |
| 1777753738 | 13.33° C | 42% | 1020.9 hPa | - | - | - | - |
| 1777752838 | 13.89° C | 42% | 1020.9 hPa | - | - | - | - |
| 1777751938 | 13.89° C | 44% | 1020.8 hPa | - | - | - | - |
| 1777751037 | 14.44° C | 44% | 1020.8 hPa | - | - | - | - |
| 1777750137 | 15° C | 40% | 1020.6 hPa | - | - | - | - |
| 1777749237 | 15° C | 40% | 1020.5 hPa | - | - | - | - |
| 1777748337 | 15° C | 41% | 1020.4 hPa | - | - | - | - |
| 1777747437 | 16.11° C | 39% | 1020.3 hPa | - | - | - | - |
| 1777746537 | 16.67° C | 38% | 1020.2 hPa | - | - | - | - |
| 1777745637 | 18.33° C | 36% | 1019.9 hPa | - | - | - | - |
| 1777744737 | 20° C | 35% | 1019.9 hPa | - | - | - | - |
* Rain since midnight (hover to see other rain measurements)
** Current wind speed in m/s (hover to see current wind gust speed)